Regional Weather Roundup
Issued by NWS

Home | Current Version | Previous Version | Graphics & Text | Print | Product List | Glossary On
Versions: 1 2 3 4 5 6 7 8 9 10 11 12 13 14 15 16 17 18 19 20 21 22 23 24 25 26 27 28 29 30 31 32 33 34 35 36 37 38 39 40 41 42 43 44 45 46 47 48 49 50
000
ASUS43 KMKX 211121
RWRWI

WISCONSIN REGIONAL WEATHER ROUNDUP
NATIONAL WEATHER SERVICE MILWAUKEE/SULLIVAN WI
600 AM CDT THU SEP 21 2017

NOTE: "FAIR" INDICATES FEW OR NO CLOUDS BELOW 12,000 FEET WITH NO
SIGNIFICANT WEATHER AND/OR OBSTRUCTIONS TO VISIBILITY.

WIZ001-002-006>008-014>016-023>028-211200-
NORTHWEST WISCONSIN

CITY           SKY/WX    TMP DP  RH WIND       PRES   REMARKS
SUPERIOR ARPT  CLEAR     39  39 100 CALM      30.01S FOG
ASHLAND        CLEAR     39  39 100 CALM      30.04S FOG
HAYWARD        CLEAR     41  39  93 N3        30.03F
SIREN          CLEAR     42  41  98 CALM      30.02F
CUMBERLAND     CLEAR     45  43  93 CALM      30.02S
RICE LAKE      SNOW      45  45  99 CALM      30.03S VSB 1/2
CHETEK         PTCLDY    47  47 100 CALM      30.02S FOG
LADYSMITH      CLEAR     49  48  97 CALM      30.04S
EAU CLAIRE     CLEAR     49  49 100 CALM      30.01R
MENOMONIE      CLEAR     51  50  98 NW3       30.01S
NEW RICHMOND   CLEAR     46  45  99 CALM      30.00F
OSCEOLA        CLEAR     43  43 100 CALM      30.02F
$$

WIZ003>005-009-010-017-018-211200-
NORTH CENTRAL WISCONSIN

CITY           SKY/WX    TMP DP  RH WIND       PRES   REMARKS
MANITOWISH WTR FOG       41  41 100 CALM      30.05R VSB 1/4
ARBOR VITAE    FOG       49  48  96 CALM      30.04R VSB 1/2
WOODRUFF       FOG       49  48  96 CALM      30.04R VSB 1/2
RHINELANDER    CLEAR     50  50 100 CALM      30.06R FOG
EAGLE RIVER    FOG       47  47 100 CALM      30.05R VSB 1/2
LAND O LAKES   FOG       46  46 100 CALM      30.07R VSB 1
PHILLIPS       FOG       45  45 100 CALM      30.03R VSB 1/2
TOMAHAWK       FOG       46  46  97 CALM      30.05R VSB 1/2
MEDFORD        CLEAR     49  49  99 NE5       30.02S
MERRILL        FOG       48  48 100 CALM      30.03S VSB 1/4
$$

WIZ029-030-035-036-043>047-211200-
CENTRAL WISCONSIN

CITY           SKY/WX    TMP DP  RH WIND       PRES   REMARKS
WAUSAU         CLEAR     59  58  96 CALM      29.99F
MOSINEE        MOCLDY    61  61 100 NE7       30.02R FOG
MARSHFIELD     CLEAR     60  55  83 NE7       29.99S
STEVENS POINT  CLOUDY    61  61 100 E3        30.01R FOG
WAUPACA        FOG       68  67  98 N5        29.99R VSB 1/2
WAUTOMA        CLOUDY    68  68 100 CALM      29.98R FOG
WISC RAPIDS    CLEAR     62  61  96 NE3       30.00R
CAMP DOUGLAS   CLOUDY    57  57 100 W3        29.99R FOG
$$

WIZ011>013-019>022-031-037>040-048>050-211200-
NORTHEAST WISCONSIN

CITY           SKY/WX    TMP DP  RH WIND       PRES   REMARKS
ANTIGO         CLOUDY    57  57 100 N6        30.03S
SHAWANO        MOCLDY    67  66  95 NE9       30.00R
OCONTO         CLOUDY    67  66  96 NE6       29.99R
STURGEON BAY   MOCLDY    66  66 100 N5        30.00R FOG
GREEN BAY      CLOUDY    67  67 100 N8        29.98R
MANITOWOC      CLOUDY    67  66  97 CALM      30.00
APPLETON       FOG       66  66 100 N8        29.96R VSB 1/2
CLINTONVILLE   NOT AVBL
OSHKOSH        MOCLDY    67  67 100 S5        29.98R
$$

WIZ032>034-041-042-053>061-211200-
SOUTHWEST WISCONSIN

CITY           SKY/WX    TMP DP  RH WIND       PRES   REMARKS
LA CROSSE      CLEAR     57  57 100 N8        29.99
SPARTA         FOG       53  53 100 CALM      30.00R VSB 1/4
VIROQUA        CLEAR     61  61 100 CALM      30.00R
BOSCOBEL       FOG       68  66  93 CALM      29.96S VSB 3/4
PRAIRIE DU CHI CLOUDY    67  65  94 CALM      29.96S FOG
PLATTEVILLE    CLOUDY    66  66 100 CALM      29.99R
$$

WIZ056-057-062-063-064-067-068-211200-
SOUTH CENTRAL WISCONSIN

CITY           SKY/WX    TMP DP  RH WIND       PRES   REMARKS
REEDSBURG      MOCLDY    65  65 100 NW3       29.98R
BARABOO/DELLS  CLOUDY    67  66  96 CALM      29.98R FOG
LONE ROCK      CLOUDY    70  69  97 N7        29.96R FOG
MINERAL POINT  CLOUDY    68  68 100 CALM      29.98R FOG
MADISON        MOCLDY    70  68  93 CALM      29.96R
MIDDLETON      MOCLDY    70  70 100 CALM      29.97S
WATERTOWN      CLOUDY    66  66 100 CALM      29.96R
MONROE         CLOUDY    70  63  78 W5        29.96S
JANESVILLE     CLOUDY    68  68 100 CALM      29.97R
$$

WIZ051-052-058>065-066-070>072-211200-
SOUTHEAST WISCONSIN

CITY           SKY/WX    TMP DP  RH WIND       PRES   REMARKS
MILWAUKEE      CLOUDY    72  67  84 SW8       29.97R
WAUKESHA       CLEAR     66  63  88 CALM      29.99R
MILWAUKEE/TIMM MOCLDY    68  63  83 CALM      29.98R
RACINE         CLOUDY    68  67  96 CALM      29.98R
BURLINGTON     CLOUDY    66  66 100 CALM      29.97S
KENOSHA        CLOUDY    69  65  86 CALM      29.97R
FOND DU LAC    CLOUDY    69  66  90 CALM      29.99R
SHEBOYGAN      MOCLDY    66  66 100 CALM      30.00R
WEST BEND        N/A     66  64  94 NE6       29.99R
JUNEAU         MOCLDY    66  65  99 CALM      30.00R FOG
$$

LSZ147-162-211200-
LAKE SUPERIOR

STATION/POSITION TIME  TEMP    WIND        PRES    WAVE
                       AIR SEA DIR/SP/G            HT/PER
                 (UTC) (F)     (DEG/KT/KT) (MB)    (FT/S)
W MID LAKE BUOY  1050   55 54   10/  2/  2 1017.0R   1
DEVILS ISLAND    1100   58      CALM  /  1 1017.1R
PORT WING        1040          140/  2/  5 1017.3R
SAXON HARBOR     1030   49     200/  5/  7 1016.6R
$$

LMZ867-665-643>646-211200-
LAKE MICHIGAN

STATION/POSITION TIME  TEMP    WIND        PRES    WAVE
                       AIR SEA DIR/SP/G            HT/PER
                 (UTC) (F)     (DEG/KT/KT) (MB)    (FT/S)
S GREEN BAY BUOY 1100   68 66   10/  8/ 10 1015.3
N MID LAKE BUOY  1050   66 65   50/  6/  8 1015.8R   3/ 6
NORTHPORT PIER   1040   67     360/  6/  7 1015.6R
KEWAUNEE LAKESHO 1054   64     290/  1/  2 1014.4R
SHEBOYGAN LAKESH 1100   68      90/  4/  4 1015.3R
PORT WASHINGTON  1040   69     360/  3/  5 1015.6R
ATWATER BUOY     1009   69 67  170/  2/  2 1014.4R
MILWAUKEE LAKESH 1100   72     230/  9/  9   N/A
S MID LAKE BUOY  1050   71 69  200/  8/ 10 1014.7R   1/ 3
KENOSHA   LAKESH 1100   71     340/  3/  4 1014.6
$$

TC  - TEMPERATURE IN CELSIUS
VSB - VISIBILITY IN STATUTE MILES
WCI - WIND CHILL INDEX
HX  - HEAT INDEX





USA.gov is the U.S. government's official web portal to all federal, state and local government web resources and services.